Needles, CA

1:30 PM PDT on July 23, 2016 (GMT -0700)
Needles

Weather History for KEED - October, 2014

Change the Weather History Date:

Wednesday, October 8, 2014

  Actual Average Record
Temperature  
Mean Temperature 76 °F 78 °F  
Max Temperature 80 °F 91 °F 105 °F (1964)
Min Temperature 71 °F 65 °F 45 °F (1916)
Degree Days  
Heating Degree Days 0    
Cooling Degree Days 10    
Growing Degree Days 26 (Base 50)    
Moisture  
Dew Point 55 °F    
Average Humidity 52    
Maximum Humidity 73    
Minimum Humidity 37    
Precipitation  
Precipitation 0.09 in 0.01 in 0.15 in (1983)
Month to date precipitation 0.07  
Year to date precipitation 3.52  
Sea Level Pressure  
Sea Level Pressure 29.81 in    
Wind  
Wind Speed 4 mph (South)    
Max Wind Speed 10 mph    
Max Gust Speed -    
Visibility 10 miles    
Events Rain    
T = Trace of Precipitation, MM = Missing Value Source: NWS Daily Summary

Daily Weather History Graph

Daily Weather History Graph

Search for Another Location

Airport or City:

Trip Planner

Search our weather history database for the weather conditions in past years. The results will help you decide how hot, cold, wet, or windy it might be!

Date:

Astronomy

Oct. 08, 2014 Rise Set
Actual Time 6:38 AM PDT 6:12 PM PDT
Civil Twilight 6:13 AM PDT 6:38 PM PDT
Nautical Twilight 5:44 AM PDT 7:07 PM PDT
Astronomical Twilight 5:14 AM PDT 7:36 PM PDT
Moon 6:32 PM PDT (10/8) 6:49 AM PDT (10/8)
Length of Visible Light 12h 24m
Length of Day
11h 34m
Full, 100% of the Moon is Illuminated
Oct 8
Full
Oct 15
Last Quarter
Oct 23
New
Oct 30
First Quarter
Nov 6
Full

Hourly Weather History & Observations

Time (PDT) Temp. Heat Index Dew Point Humidity Pressure Visibility Wind Dir Wind Speed Gust Speed Precip Events Conditions
12:56 AM 73.9 °F - 46.9 °F 38% 29.83 in 10.0 mi Calm Calm - N/A   Clear
1:56 AM 75.0 °F - 46.9 °F 37% 29.83 in 10.0 mi WNW 5.8 mph - N/A   Mostly Cloudy
2:56 AM 75.0 °F - 48.0 °F 38% 29.81 in 10.0 mi West 4.6 mph - N/A   Overcast
3:56 AM 75.0 °F - 48.0 °F 38% 29.80 in 10.0 mi Calm Calm - N/A   Overcast
4:56 AM 73.9 °F - 48.0 °F 40% 29.79 in 10.0 mi West 3.5 mph - N/A   Overcast
5:56 AM 73.0 °F - 48.9 °F 42% 29.80 in 10.0 mi Calm Calm - N/A   Mostly Cloudy
6:56 AM 73.9 °F - 48.9 °F 41% 29.81 in 10.0 mi Calm Calm - N/A   Overcast
7:56 AM 75.0 °F - 48.9 °F 40% 29.82 in 10.0 mi Calm Calm - N/A   Overcast
8:56 AM 75.9 °F - 53.1 °F 45% 29.85 in 9.0 mi West 6.9 mph - 0.00 in Rain Light Rain
9:56 AM 73.0 °F - 60.1 °F 64% 29.86 in 5.0 mi NNW 5.8 mph - 0.06 in Rain Light Rain
10:56 AM 73.0 °F - 63.0 °F 71% 29.85 in 10.0 mi SW 10.4 mph - 0.02 in Rain Light Rain
11:56 AM 71.1 °F - 62.1 °F 73% 29.85 in 10.0 mi ESE 4.6 mph - 0.01 in   Overcast
12:56 PM 73.9 °F - 61.0 °F 64% 29.82 in 10.0 mi SE 5.8 mph - N/A   Scattered Clouds
1:56 PM 75.0 °F - 63.0 °F 66% 29.79 in 10.0 mi ESE 6.9 mph - N/A   Partly Cloudy
2:56 PM 75.9 °F - 61.0 °F 60% 29.78 in 10.0 mi South 5.8 mph - N/A   Clear
3:56 PM 80.1 °F 80.6 °F 57.9 °F 47% 29.76 in 10.0 mi SE 5.8 mph - N/A   Scattered Clouds
4:56 PM 79.0 °F - 59.0 °F 50% 29.76 in 10.0 mi ESE 8.1 mph - N/A   Overcast
5:56 PM 77.0 °F - 59.0 °F 54% 29.76 in 10.0 mi East 8.1 mph - N/A   Overcast
6:56 PM 75.9 °F - 55.9 °F 50% 29.77 in 10.0 mi ESE 9.2 mph - N/A   Overcast
7:56 PM 73.9 °F - 57.0 °F 55% 29.80 in 10.0 mi Calm Calm - N/A   Clear
8:56 PM 73.9 °F - 59.0 °F 59% 29.80 in 10.0 mi Calm Calm - N/A   Mostly Cloudy
9:56 PM 73.0 °F - 59.0 °F 61% 29.81 in 10.0 mi Calm Calm - N/A   Scattered Clouds
10:56 PM 73.9 °F - 57.9 °F 57% 29.80 in 10.0 mi WSW 10.4 mph - N/A   Clear
11:56 PM 73.9 °F - 57.0 °F 55% 29.79 in 10.0 mi WSW 9.2 mph - N/A   Clear